Regional Weather Roundup
Issued by NWS

Home | Current Version | Previous Version | Text Only | Print | Product List | Glossary On
Versions: 1 2 3 4 5 6 7 8 9 10 11 12 13 14 15 16 17 18 19 20 21 22 23 24 25 26 27 28 29 30 31 32 33 34 35 36 37 38 39 40 41 42 43 44 45 46 47 48 49 50
730
ASUS43 KDTX 310201
RWRMI
MICHIGAN HOURLY REGIONAL WEATHER ROUNDUP
NATIONAL WEATHER SERVICE DETROIT/PONTIAC MI
1000 PM EDT TUE AUG 30 2016

NOTE: "FAIR" INDICATES FEW OR NO CLOUDS BELOW 12,000 FEET WITH NO
SIGNIFICANT WEATHER AND/OR OBSTRUCTION TO VISIBILITY.

MIZ047>049-052>055-059>063-066>070-074>076-081>083-310300-
SOUTHEAST LOWER MICHIGAN

CITY           SKY/WX    TMP DP  RH WIND       PRES   REMARKS
ADRIAN         LGT RAIN  71  70  96 W7        30.08R
ALMA           PTCLDY    71  71 100 SW9       30.05R FOG
ANN ARBOR      CLOUDY    72  69  90 SW3       30.06R
BAD AXE        LGT RAIN  68  66  94 CALM      30.05S
CARO           PTCLDY    71  70  98 CALM      30.03S
DETROIT CITY   CLOUDY    76  65  68 CALM      30.05R
DETROIT        CLOUDY    76  67  73 S6        30.06R
FLINT          CLOUDY    73  70  90 W3        30.05R
GROSSE ILE     MOCLDY    73  69  87 S3        30.04R
HILLSDALE      LGT RAIN  69  67  94 S6        30.07S
HOWELL         CLOUDY    73  69  88 CALM      30.06R

CITY           SKY/WX    TMP DP  RH WIND       PRES   REMARKS
JACKSON        CLOUDY    72  68  87 SW6       30.07R
LAMBERTVILLE   LGT RAIN  74  71  89 SW3       30.07S
LANSING        CLOUDY    71  68  90 CALM      30.06R
LAPEER         FAIR      72  70  95 S3        30.05S
MASON          CLOUDY    71  67  88 S5        30.06S
MONROE         CLOUDY    73  68  86 CALM      30.05R
MT. CLEMENS    CLOUDY    73  66  78 S5        30.03R
PONTIAC        DRIZZLE   76  67  73 CALM      30.05R
PORT HOPE        N/A     69  67  93 SW7       30.01F
PORT HURON     CLOUDY    68  66  94 CALM      30.04S
TRI CITIES     CLOUDY    73  69  87 SW8       30.03S
MIDLAND        FAIR      73  68  87 SW5       30.02S
TROY           CLOUDY    79  62  55 SW3       30.07R
SAGINAW HB     CLOUDY    72  68  88 SW6       30.03R
$$
MIZ043>046-050>051-056>058-064>065-071>073-077>080-310300-
SOUTHWEST LOWER MICHIGAN

CITY           SKY/WX    TMP DP  RH WIND       PRES   REMARKS
BATTLE CREEK   CLOUDY    70  70 100 S8        30.07R
BENTON HARBOR  CLOUDY    74  71  91 CALM      30.05R FOG
BIG RAPIDS     PTCLDY    74  71  91 W3        30.05R
COLDWATER      MOCLDY    69  69 100 S3        30.08R
FREMONT        CLOUDY    72  71  97 CALM      30.05R
HOLLAND        CLOUDY    72  70  93 SW3       30.05R
GRAND RAPIDS   CLOUDY    74  68  81 CALM      30.05R
IONIA          FAIR      71  67  87 CALM      30.04S
KALAMAZOO      CLOUDY    73  69  87 S6        30.06R
LUDINGTON      MOCLDY    70  70  99 CALM      30.03R
MARSHALL       PTCLDY    71  70  98 S3        30.07R
MOUNT PLEASANT MOCLDY    73  70  91 SW3       30.03R
MUSKEGON       CLOUDY    75  72  90 CALM      30.05R
SOUTH HAVEN    CLOUDY    74  73  96 CALM      30.05S
$$
MIZ016>042-310300-
NORTHERN LOWER MICHIGAN

CITY           SKY/WX    TMP DP  RH WIND       PRES   REMARKS
ALPENA         CLOUDY    72  65  78 N10       30.04R
BEAVER ISLAND  PTCLDY    65  56  74 N9        30.08R
BELLAIRE       HVY RAIN  71  68  90 N3        30.04R
CADILLAC       PTCLDY    69  66  91 NW3       30.06R
CHARLEVOIX     MOCLDY    71  62  73 N13G20    30.08R
FRANKFORT      CLOUDY    72  69  92 CALM      30.04R FOG
GAYLORD        PTCLDY    71  63  75 NW3       30.07R
GRAYLING       CLEAR     69  67  91 CALM      30.06S
HARBOR SPRINGS CLOUDY    69  63  81 N6        30.06R
HOUGHTON LAKE  CLOUDY    72  68  87 N6        30.06R
MANISTEE       CLOUDY    69  68  96 CALM      30.03R FOG
OSCODA         CLOUDY    68  67  97 SW8       30.02S
PELLSTON       MOCLDY    67  63  87 NW6       30.06R
ROGERS CITY    CLOUDY    69  62  77 N8        30.05R
TRAVERSE CITY  CLOUDY    76  69  79 N6        30.03R
$$
MIZ007>008-015-310300-
EASTERN UPPER MICHIGAN

CITY           SKY/WX    TMP DP  RH WIND       PRES   REMARKS
KINROSS        CLEAR     61  58  90 NW12      30.05R
MACKINAC ISLAN PTCLDY    64  56  75 N7        30.06R
NEWBERRY       CLEAR     59  55  85 NW6       30.07S
S. S. MARIE    MOCLDY    63  59  87 NW7       30.04R
MUNISING         N/A     64  58  80 NW10      30.08R
$$
MIZ004>006-011>014-085-310300-
CENTRAL UPPER MICHIGAN

CITY           SKY/WX    TMP DP  RH WIND       PRES   REMARKS
MANISTIQUE     CLEAR     60  52  75 N7        30.07R
ESCANABA       CLEAR     64  56  75 N7        30.08R
MENOMINEE      PTCLDY   N/A N/A N/A E15       30.06R
SAWYER-GWINN   CLEAR     59  55  88 N3        30.11R
$$
MIZ001>003-009>011-084-310300-
WESTERN UPPER MICHIGAN

CITY           SKY/WX    TMP DP  RH WIND       PRES   REMARKS
IRON MOUNTAIN  CLEAR     63  52  67 N6        30.10R
HOUGHTON       CLEAR     58  54  86 W3        30.10S
COPPER HARBOR    N/A     64  56  75 VRB5      30.08S
IRONWOOD       CLEAR     56  55  97 CALM      30.15R
$$

ABBREVIATIONS USED IN REMARKS
   TC - TEMPERATURE IN CELSIUS
  WCI - WIND CHILL INDEX
   HX - HEAT INDEX
  VSB - VISIBILITY





USA.gov is the U.S. government's official web portal to all federal, state and local government web resources and services.